| time (UTC) | temp F | wind direction | speed MPH | gust MPH | rain 1hr in | rain 24hr in | rain mn in | humidity % | barometer mb |
| 20260509214344 | 70 | 14 | 4.0 | 9.0 | 0.00 | 0.00 | 0.00 | 42 | 1010.5 |
| 20260509213349 | 70 | 354 | 5.0 | 11.0 | 0.00 | 0.00 | 0.00 | 41 | 1010.5 |
| 20260509212353 | 71 | 26 | 6.0 | 11.0 | 0.00 | 0.00 | 0.00 | 40 | 1010.4 |
| 20260509211346 | 71 | 344 | 3.0 | 14.0 | 0.00 | 0.00 | 0.00 | 41 | 1010.3 |
| 20260509210334 | 71 | 356 | 6.0 | 16.0 | 0.00 | 0.00 | 0.00 | 39 | 1010.1 |
| 20260509205326 | 72 | 32 | 4.0 | 13.0 | 0.00 | 0.00 | 0.00 | 37 | 1010.0 |
| 20260509204334 | 72 | 35 | 7.0 | 13.0 | 0.00 | 0.00 | 0.00 | 39 | 1009.8 |
| 20260509203347 | 74 | 15 | 8.0 | 13.0 | 0.00 | 0.00 | 0.00 | 35 | 1009.6 |
| 20260509202332 | 76 | 338 | 6.0 | 12.0 | 0.00 | 0.00 | 0.00 | 33 | 1009.4 |
| 20260509201341 | 76 | 8 | 4.0 | 10.0 | 0.00 | 0.00 | 0.00 | 31 | 1009.2 |
| 20260509200330 | 76 | 1 | 5.0 | 11.0 | 0.00 | 0.00 | 0.00 | 30 | 1009.0 |
| 20260509195341 | 77 | 29 | 3.0 | 9.0 | 0.00 | 0.00 | 0.00 | 29 | 1008.9 |
| 20260509194411 | 77 | 26 | 2.0 | 8.0 | 0.00 | 0.00 | 0.00 | 26 | 1008.8 |
| 20260509193327 | 76 | 15 | 0.0 | 6.0 | 0.00 | 0.00 | 0.00 | 29 | 1008.8 |
| 20260509192334 | 77 | 339 | 2.0 | 7.0 | 0.00 | 0.00 | 0.00 | 28 | 1008.8 |
| 20260509191339 | 77 | 7 | 3.0 | 7.0 | 0.00 | 0.00 | 0.00 | 27 | 1008.8 |
| 20260509190329 | 77 | 355 | 3.0 | 8.0 | 0.00 | 0.00 | 0.00 | 29 | 1008.7 |
| 20260509185323 | 77 | 17 | 6.0 | 10.0 | 0.00 | 0.00 | 0.00 | 27 | 1008.7 |
| 20260509184349 | 76 | 347 | 0.0 | 6.0 | 0.00 | 0.00 | 0.00 | 28 | 1008.7 |
| 20260509183339 | 75 | 330 | 2.0 | 7.0 | 0.00 | 0.00 | 0.00 | 28 | 1008.9 |
| 20260509182324 | 76 | 344 | 3.0 | 7.0 | 0.00 | 0.00 | 0.00 | 28 | 1009.0 |
| 20260509181358 | 75 | 24 | 2.0 | 6.0 | 0.00 | 0.00 | 0.00 | 29 | 1008.8 |
| 20260509180328 | 74 | 23 | 4.0 | 6.0 | 0.00 | 0.00 | 0.00 | 30 | 1008.7 |
| 20260509175356 | 74 | 10 | 2.0 | 6.0 | 0.00 | 0.00 | 0.00 | 30 | 1008.7 |
| 20260509174338 | 74 | 15 | 3.0 | 7.0 | 0.00 | 0.00 | 0.00 | 29 | 1008.7 |
| 20260509173348 | 74 | 22 | 1.0 | 8.0 | 0.00 | 0.00 | 0.00 | 30 | 1008.7 |
| 20260509172332 | 74 | 12 | 2.0 | 5.0 | 0.00 | 0.00 | 0.00 | 30 | 1008.9 |
| 20260509171339 | 74 | 244 | 2.0 | 7.0 | 0.00 | 0.00 | 0.00 | 30 | 1008.9 |
| 20260509170351 | 73 | 19 | 3.0 | 7.0 | 0.00 | 0.00 | 0.00 | 30 | 1009.0 |
| 20260509165335 | 72 | 27 | 3.0 | 7.0 | 0.00 | 0.00 | 0.00 | 31 | 1009.0 |
| 20260509164338 | 72 | 339 | 2.0 | 5.0 | 0.00 | 0.00 | 0.00 | 36 | 1009.0 |
| 20260509163347 | 71 | 339 | 2.0 | 6.0 | 0.00 | 0.00 | 0.00 | 34 | 1008.9 |
| 20260509162347 | 70 | 335 | 3.0 | 7.0 | 0.00 | 0.00 | 0.00 | 34 | 1008.9 |
| 20260509161334 | 70 | 332 | 4.0 | 11.0 | 0.00 | 0.00 | 0.00 | 33 | 1008.9 |
| 20260509160346 | 70 | 26 | 3.0 | 9.0 | 0.00 | 0.00 | 0.00 | 34 | 1008.9 |
| 20260509155345 | 70 | 27 | 4.0 | 7.0 | 0.00 | 0.00 | 0.00 | 37 | 1009.0 |
| 20260509154327 | 69 | 359 | 4.0 | 7.0 | 0.00 | 0.00 | 0.00 | 36 | 1009.2 |
| 20260509153337 | 69 | 357 | 3.0 | 6.0 | 0.00 | 0.00 | 0.00 | 38 | 1009.3 |
| 20260509152352 | 69 | 358 | 4.0 | 10.0 | 0.00 | 0.00 | 0.00 | 37 | 1009.6 |
| 20260509151333 | 69 | 337 | 5.0 | 8.0 | 0.00 | 0.00 | 0.00 | 37 | 1009.3 |
| 20260509150323 | 69 | 19 | 5.0 | 6.0 | 0.00 | 0.00 | 0.00 | 39 | 1009.2 |
| 20260509145334 | 68 | 164 | 1.0 | 4.0 | 0.00 | 0.00 | 0.00 | 38 | 1008.2 |
| 20260509144338 | 67 | 219 | 2.0 | 4.0 | 0.00 | 0.00 | 0.00 | 39 | 1008.2 |
| 20260509143350 | 66 | 287 | 2.0 | 6.0 | 0.00 | 0.00 | 0.00 | 38 | 1008.3 |
| 20260509142334 | 66 | 143 | 2.0 | 5.0 | 0.00 | 0.00 | 0.00 | 40 | 1008.4 |
| 20260509141339 | 64 | 169 | 2.0 | 4.0 | 0.00 | 0.00 | 0.00 | 45 | 1008.4 |
| 20260509140331 | 62 | 159 | 1.0 | 4.0 | 0.00 | 0.00 | 0.00 | 48 | 1008.4 |
| 20260509135324 | 61 | 173 | 0.0 | 2.0 | 0.00 | 0.00 | 0.00 | 53 | 1008.5 |
| 20260509134359 | 59 | 180 | 1.0 | 1.0 | 0.00 | 0.00 | 0.00 | 54 | 1008.3 |
| 20260509133344 | 58 | 166 | 0.0 | 2.0 | 0.00 | 0.00 | 0.00 | 54 | 1008.3 |
| 20260509132330 | 57 | 170 | 0.0 | 2.0 | 0.00 | 0.00 | 0.00 | 57 | 1008.4 |
| 20260509131334 | 56 | 157 | 0.0 | 1.0 | 0.00 | 0.00 | 0.00 | 56 | 1008.4 |
| 20260509130322 | 54 | 138 | 0.0 | 2.0 | 0.00 | 0.00 | 0.00 | 59 | 1008.4 |
| 20260509125335 | 53 | 164 | 0.0 | 0.0 | 0.00 | 0.00 | 0.00 | 61 | 1008.4 |
| 20260509124337 | 52 | 306 | 0.0 | 0.0 | 0.00 | 0.00 | 0.00 | 62 | 1008.4 |
| 20260509123323 | 51 | 342 | 0.0 | 0.0 | 0.00 | 0.00 | 0.00 | 64 | 1008.3 |
| 20260509122337 | 50 | 342 | 0.0 | 0.0 | 0.00 | 0.00 | 0.00 | 65 | 1008.2 |
| 20260509121323 | 50 | 342 | 0.0 | 0.0 | 0.00 | 0.00 | 0.00 | 65 | 1008.1 |
| 20260509120336 | 49 | 341 | 0.0 | 0.0 | 0.00 | 0.00 | 0.00 | 67 | 1008.2 |
| 20260509115329 | 47 | 339 | 0.0 | 0.0 | 0.00 | 0.00 | 0.00 | 70 | 1008.1 |
| 20260509114355 | 47 | 339 | 0.0 | 0.0 | 0.00 | 0.00 | 0.00 | 71 | 1007.9 |
| 20260509113325 | 47 | 339 | 0.0 | 0.0 | 0.00 | 0.00 | 0.00 | 70 | 1007.8 |
| 20260509112357 | 47 | 339 | 0.0 | 0.0 | 0.00 | 0.00 | 0.00 | 70 | 1007.7 |
| 20260509111353 | 47 | 339 | 0.0 | 0.0 | 0.00 | 0.00 | 0.00 | 69 | 1007.6 |
| 20260509110322 | 47 | 339 | 0.0 | 0.0 | 0.00 | 0.00 | 0.00 | 70 | 1007.6 |
| 20260509105332 | 47 | 339 | 0.0 | 0.0 | 0.00 | 0.00 | 0.00 | 70 | 1007.5 |
| 20260509104338 | 48 | 339 | 0.0 | 0.0 | 0.00 | 0.00 | 0.00 | 68 | 1007.5 |
| 20260509103348 | 48 | 339 | 0.0 | 0.0 | 0.00 | 0.00 | 0.00 | 69 | 1007.6 |
| 20260509102330 | 48 | 339 | 0.0 | 0.0 | 0.00 | 0.00 | 0.00 | 68 | 1007.5 |
| 20260509101339 | 48 | 339 | 0.0 | 0.0 | 0.00 | 0.00 | 0.00 | 67 | 1007.5 |
| 20260509100406 | 49 | 339 | 0.0 | 0.0 | 0.00 | 0.00 | 0.00 | 67 | 1007.5 |
| 20260509095327 | 48 | 339 | 0.0 | 0.0 | 0.00 | 0.00 | 0.00 | 66 | 1007.5 |
| 20260509094333 | 48 | 339 | 0.0 | 0.0 | 0.00 | 0.00 | 0.00 | 66 | 1007.5 |
| 20260509093323 | 49 | 339 | 0.0 | 0.0 | 0.00 | 0.00 | 0.00 | 65 | 1007.5 |
| 20260509092336 | 48 | 339 | 0.0 | 0.0 | 0.00 | 0.00 | 0.00 | 65 | 1007.5 |
| 20260509091351 | 48 | 339 | 0.0 | 0.0 | 0.00 | 0.00 | 0.00 | 65 | 1007.5 |
| 20260509090331 | 49 | 339 | 0.0 | 0.0 | 0.00 | 0.00 | 0.00 | 64 | 1007.4 |
| 20260509085338 | 49 | 339 | 0.0 | 0.0 | 0.00 | 0.00 | 0.00 | 63 | 1007.3 |
| 20260509082324 | 51 | 339 | 0.0 | 0.0 | 0.00 | 0.00 | 0.00 | 60 | 1007.1 |
| 20260509081326 | 51 | 339 | 0.0 | 0.0 | 0.00 | 0.00 | 0.00 | 60 | 1007.1 |
| 20260509080354 | 51 | 339 | 0.0 | 0.0 | 0.00 | 0.00 | 0.00 | 59 | 1007.0 |
| 20260509075324 | 52 | 339 | 0.0 | 0.0 | 0.00 | 0.00 | 0.00 | 57 | 1007.0 |
| 20260509074330 | 53 | 339 | 0.0 | 0.0 | 0.00 | 0.00 | 0.00 | 56 | 1007.0 |
| 20260509073322 | 54 | 339 | 0.0 | 0.0 | 0.00 | 0.00 | 0.00 | 53 | 1007.1 |
| 20260509072335 | 55 | 339 | 0.0 | 0.0 | 0.00 | 0.00 | 0.00 | 51 | 1007.2 |
| 20260509071336 | 56 | 339 | 0.0 | 0.0 | 0.00 | 0.00 | 0.00 | 48 | 1007.0 |
| 20260509070347 | 57 | 339 | 0.0 | 0.0 | 0.00 | 0.00 | 0.00 | 46 | 1007.1 |
| 20260509065339 | 58 | 339 | 0.0 | 0.0 | 0.00 | 0.00 | 0.00 | 45 | 1007.1 |
| 20260509064324 | 60 | 339 | 0.0 | 0.0 | 0.00 | 0.00 | 0.00 | 43 | 1007.2 |
| 20260509063334 | 60 | 339 | 0.0 | 1.0 | 0.00 | 0.00 | 0.00 | 42 | 1007.2 |
| 20260509062352 | 61 | 5 | 0.0 | 2.0 | 0.00 | 0.00 | 0.00 | 41 | 1007.1 |
| 20260509061345 | 62 | 326 | 0.0 | 3.0 | 0.00 | 0.00 | 0.00 | 42 | 1007.2 |
| 20260509060329 | 63 | 3 | 0.0 | 2.0 | 0.00 | 0.00 | 0.00 | 40 | 1007.2 |
| 20260509055404 | 63 | 12 | 1.0 | 3.0 | 0.00 | 0.00 | 0.00 | 39 | 1007.1 |
| 20260509054400 | 64 | 356 | 1.0 | 5.0 | 0.00 | 0.00 | 0.00 | 38 | 1007.0 |
| 20260509053328 | 65 | 327 | 3.0 | 6.0 | 0.00 | 0.00 | 0.00 | 37 | 1007.0 |
| 20260509052334 | 64 | 41 | 2.0 | 4.0 | 0.00 | 0.00 | 0.00 | 38 | 1006.8 |
| 20260509051338 | 62 | 21 | 2.0 | 3.0 | 0.00 | 0.00 | 0.00 | 40 | 1006.8 |
| 20260509050349 | 60 | 321 | 0.0 | 0.0 | 0.00 | 0.00 | 0.00 | 43 | 1006.7 |
| 20260509045329 | 59 | 261 | 0.0 | 1.0 | 0.00 | 0.00 | 0.00 | 46 | 1006.7 |
| 20260509044400 | 58 | 247 | 0.0 | 0.0 | 0.00 | 0.00 | 0.00 | 47 | 1006.6 |
| 20260509043331 | 58 | 247 | 0.0 | 0.0 | 0.00 | 0.00 | 0.00 | 50 | 1006.6 |
| 20260509042323 | 59 | 247 | 0.0 | 0.0 | 0.00 | 0.00 | 0.00 | 50 | 1006.4 |
| 20260509041339 | 60 | 247 | 0.0 | 0.0 | 0.00 | 0.00 | 0.00 | 48 | 1006.4 |
| 20260509040405 | 59 | 247 | 0.0 | 0.0 | 0.00 | 0.00 | 0.00 | 44 | 1006.4 |
| 20260509035325 | 60 | 247 | 0.0 | 0.0 | 0.00 | 0.00 | 0.00 | 48 | 1006.4 |
| 20260509034359 | 61 | 246 | 0.0 | 0.0 | 0.00 | 0.00 | 0.00 | 45 | 1006.2 |
| 20260509033348 | 61 | 247 | 0.0 | 0.0 | 0.00 | 0.00 | 0.00 | 49 | 1006.2 |
| 20260509032353 | 61 | 245 | 0.0 | 0.0 | 0.00 | 0.00 | 0.00 | 44 | 1006.1 |
| 20260509031353 | 62 | 242 | 0.0 | 0.0 | 0.00 | 0.00 | 0.00 | 45 | 1006.0 |
| 20260509030344 | 62 | 242 | 0.0 | 0.0 | 0.00 | 0.00 | 0.00 | 43 | 1005.9 |
| 20260509025331 | 62 | 242 | 0.0 | 0.0 | 0.00 | 0.00 | 0.00 | 41 | 1005.8 |
| 20260509024337 | 64 | 242 | 0.0 | 0.0 | 0.00 | 0.00 | 0.00 | 39 | 1005.6 |
| 20260509023327 | 65 | 242 | 0.0 | 0.0 | 0.00 | 0.00 | 0.00 | 39 | 1005.5 |
| 20260509022338 | 66 | 242 | 0.0 | 0.0 | 0.00 | 0.00 | 0.00 | 36 | 1005.4 |
| 20260509021325 | 68 | 242 | 0.0 | 0.0 | 0.00 | 0.00 | 0.00 | 34 | 1005.2 |
| 20260509020338 | 69 | 242 | 0.0 | 0.0 | 0.00 | 0.00 | 0.00 | 31 | 1005.1 |
| 20260509015325 | 71 | 242 | 0.0 | 0.0 | 0.00 | 0.00 | 0.00 | 28 | 1004.9 |
| 20260509014335 | 72 | 278 | 0.0 | 1.0 | 0.00 | 0.00 | 0.00 | 27 | 1004.8 |
| 20260509013349 | 73 | 277 | 0.0 | 1.0 | 0.00 | 0.00 | 0.00 | 28 | 1004.8 |
| 20260509012330 | 74 | 128 | 0.0 | 3.0 | 0.00 | 0.00 | 0.00 | 27 | 1004.7 |
| 20260509011338 | 74 | 9 | 0.0 | 3.0 | 0.00 | 0.00 | 0.00 | 27 | 1004.6 |
| 20260509010350 | 75 | 3 | 1.0 | 3.0 | 0.00 | 0.00 | 0.00 | 26 | 1004.5 |
| 20260509005333 | 75 | 348 | 0.0 | 6.0 | 0.00 | 0.00 | 0.00 | 26 | 1004.5 |
| 20260509004339 | 76 | 267 | 3.0 | 8.0 | 0.00 | 0.00 | 0.00 | 25 | 1004.4 |
| 20260509003348 | 77 | 22 | 2.0 | 3.0 | 0.00 | 0.00 | 0.00 | 27 | 1004.3 |
| 20260509002333 | 77 | 360 | 1.0 | 8.0 | 0.00 | 0.00 | 0.00 | 27 | 1004.3 |
| 20260509001335 | 77 | 172 | 1.0 | 5.0 | 0.00 | 0.00 | 0.00 | 28 | 1004.3 |
| 20260509000326 | 78 | 282 | 2.0 | 6.0 | 0.00 | 0.00 | 0.00 | 28 | 1004.3 |
| 20260508235355 | 78 | 234 | 0.0 | 3.0 | 0.00 | 0.00 | 0.00 | 29 | 1004.3 |
| 20260508234339 | 77 | 358 | 2.0 | 6.0 | 0.00 | 0.00 | 0.00 | 30 | 1004.4 |
| 20260508233351 | 77 | 84 | 2.0 | 5.0 | 0.00 | 0.00 | 0.00 | 27 | 1004.5 |
| 20260508232334 | 77 | 357 | 1.0 | 8.0 | 0.00 | 0.00 | 0.00 | 32 | 1004.7 |
| 20260508231340 | 78 | 91 | 2.0 | 6.0 | 0.00 | 0.00 | 0.00 | 27 | 1004.5 |
| 20260508230350 | 80 | 232 | 3.0 | 8.0 | 0.00 | 0.00 | 0.00 | 26 | 1004.4 |
| 20260508225333 | 81 | 155 | 2.0 | 6.0 | 0.00 | 0.00 | 0.00 | 27 | 1004.5 |
| 20260508224332 | 80 | 199 | 4.0 | 8.0 | 0.00 | 0.00 | 0.00 | 24 | 1004.6 |
| 20260508223323 | 80 | 128 | 2.0 | 5.0 | 0.00 | 0.00 | 0.00 | 27 | 1004.8 |
| 20260508222336 | 80 | 351 | 1.0 | 7.0 | 0.00 | 0.00 | 0.00 | 27 | 1004.8 |
| 20260508221340 | 80 | 171 | 3.0 | 5.0 | 0.00 | 0.00 | 0.00 | 26 | 1005.0 |
| 20260508220329 | 79 | 223 | 2.0 | 8.0 | 0.00 | 0.00 | 0.00 | 26 | 1005.1 |
| 20260508215341 | 79 | 280 | 2.0 | 6.0 | 0.00 | 0.00 | 0.00 | 25 | 1005.2 |